Track LEMUR 2 DAISY-HARPER now! 10-day predictions LEMUR 2 DAISY-HARPER is classified as:
1 43889U 18111P 22136.46499007 .00006622 00000-0 54489-3 0 9996 2 43889 97.6797 45.8370 0011222 58.5770 301.6549 14.99395027185018